"Pseudo-MPEC" for C8GKF92

Created 2022 Nov 25 2:22:09 UT using Find_Orb

Click here for an explanation of pseudo-MPECs

 
 Astrometry: 
     C8GKF92  C2022 11 22.47153 05 13 38.74 +51 45 28.3    ~BOAM 20.1 GVNEOCPG96
     C8GKF92  C2022 11 22.47740 05 13 39.25 +51 44 19.7    ~BOAM       VNEOCPG96
     C8GKF92*1C2022 11 23.44294505 15 20.740+48 31 16.68   ~BNBb 20.65GVNEOCPG96
     C8GKF92 1C2022 11 23.44880305 15 21.139+48 30 02.27   ~BNBb 21.03GVNEOCPG96
     C8GKF92 1C2022 11 23.45462105 15 21.506+48 28 49.19   ~BNBb 20.44GVNEOCPG96
     C8GKF92 1C2022 11 23.46045105 15 21.892+48 27 35.14   ~BNBb 21.47GVNEOCPG96
     C8GKF92 KC2022 11 23.51296105 15 25.801+48 16 26.98   ~BNCb 20.95GVNEOCPI52
     C8GKF92 KC2022 11 23.51410005 15 25.888+48 16 12.54   ~BNCb 20.75GVNEOCPI52
     C8GKF92 KC2022 11 23.51523905 15 26.010+48 15 58.14   ~BNCb 20.81GVNEOCPI52
     C8GKF92 KC2022 11 23HB#e(Lb_]POLg%vTu7/1/`pg9]\;Z?EAstrometry]Eav(7KT%+ML01
     C8GKF92 KC2022 11 23!_l_1$HLN5(BMd]-V,!!mx]_#ld.??Hueaai0grEo:r3QYQ.eScYL01
     C8GKF92 KC2022 11 23+G.9\q2U?-@nd6[66*Pb='Boi-S@-8omNfY]_fX@5v0J2F/b/LC+L01
     C8GKF92 KC2022 11 23A38wf3*@%g.@FkZf#Uy0Z1WiM@;qK7^=4J*sD0M1rm1=MwA'-@8gL01
     C8GKF92 IC2022 11 23RoV%iKP:b41Q8J\wGxDX;L0\Sq#k^/:n4)?ew\S/3lK](Q4POXbDL01
     C8GKF92 KC2022 11 23^L'8C*)[mxO'[IFY+ThFmUNDiXM!Aq`GxRk\[LO3V1o%1N0ep(ec958
     C8GKF92 KC2022 11 23]:aL4[Gredacted;_Ao8s:N/fXBvik!T?e@im_R*Sm0[FMAgBY;\958
     C8GKF92 KC2022 11 23-$#?S.lU=et7UhvaLPU7V6]]1$Zj?pRCsqx'Zj\QU0hclickdRdL958
     C8GKF92 KC2022 11 24%:[JKyb]WB'w83tf_rms)Jr986lVKKwgu#@]:wYuNr/I^Hu+u84EL06
     C8GKF92 KC2022 11 24d'7Mm=xnenK_+e]eae7JhOLdZGHherel@)]@WP7/I`uq14wKA872L06
     C8GKF92 KC2022 11 24%ahCuiECfor5?'r`8QGK7BBI1y\tlM-bSnPvjsvg.oHZU`\a.bx*104
     C8GKF92 KC2022 11 24^G;]!RXm%?U23_explanationcW29yt.GT.7%pS#7%puZH-NM]:m104

Station data:
(104) San Marcello Pistoiese  (N44.064178 E10.803750)  Italy.  Observers P.
   Bacci, M. Maestripieri. Measurers P. Bacci, L. Tesi, G. Fagioli. 0.60-m
   reflector + CCD.
(958) Observatoire de Dax  (N43.693324 W1.030390)  France.  Observer P.
   Dupouy. 0.32-m Schmidt-Cassegrain.
(G96) Mt. Lemmon Survey  (N32.442751 W110.788720)  US/Arizona.  Observers T.
   A. Pruyne, B. M. Africano, E. J. Christensen, G. A. Farneth, D. C. Fuls,
   A. R. Gibbs, A. D. Grauer, H. Gröller, J. A. Johnson, R. A. Kowalski, S.
   M. Larson, G. J. Leonard, D. Rankin, R. L. Seaman, F. C. Shelly, K. W.
   Wierzchoś. 1.5-m reflector + 10K CCD.
(I52) Steward Observatory, Mt. Lemmon Station  (N32.442544 W110.788920)
   US/Arizona.  Observers T. A. Pruyne, B. M. Africano, E. J. Christensen, G.
   A. Farneth, D. C. Fuls, A. R. Gibbs, A. D. Grauer, H. Gröller, J. A.
   Johnson, R. A. Kowalski, S. M. Larson, G. J. Leonard, D. Rankin, R. L.
   Seaman, F. C. Shelly, K. W. Wierzchoś. 1.0-m reflector + CCD.
(L01) Višnjan Observatory, Tičan  (N45.290897 E13.749300)  Croatia.
   Observers K. Korlević, D. Pujagic, V. Dobos. Measurers D. Pujagic, K.
   Korlević. 1.0-m f/2.9 reflector + CCD.
(L06) Sormano 2 Observatory, Bellagio Via Lattea  (N45.970100 E9.254030)
   Italy.  Observer G. Ventre. Measurers G. Ventre, P. Sicoli. 0.28-m f/10
   reflector + CCD.

Orbital elements:  C8GKF92
   Perihelion 2022 Dec 2.73616 +/- 0.0224 TT = 17:40:04 (JD 2459916.23616)
Epoch 2022 Nov 24.0 TT = JDT 2459907.5   Earth MOID: 0.1083   AutoNEOCP
M 356.40818907 +/- 0.035            (J2000 ecliptic)
n   0.41114299 +/- 0.00344          Peri.  183.30163 +/- 0.022
a   1.79118641 +/- 0.01             Node   248.36915 +/- 0.0057
e   0.3892287 +/- 0.00315           Incl.   28.12196 +/- 0.10
P   2.40/875.59d           H 23.7   G  0.15   U  8.9
q 1.09400520 +/- 0.000473    Q 2.48836762 +/- 0.0195
From 21 observations 2022 Nov. 22-24; mean residual 0".37
Residuals in arcseconds: 
221122 G96  .42-  .05-    221123 I52  .06-  .03-    221123 958  .97+  .40-    
221122 G96  .14-  .10+    221123 I52  .26+  .13+    221123 958  .01-  1.0-    
221123 G96  .15+  .07+    221123 L01  .21-  .54+    221123 958  .71-  .52+    
221123 G96  .16+  .35-    221123 L01  .07+  .62+    221124 L06  .20+  .29+    
221123 G96  .17-  .14+    221123 L01  .31+  .03+    221124 L06  .58-  .43+    
221123 G96  .35-  .10-    221123 L01  .61+  .20+    221124 104  .00   .28-    
221123 I52  .04-  .15-    221123 L01  .34+  .21-    221124 104  .20-  .31-    

Ephemerides (geocentric):
Date (UTC) HH   RA             Dec           delta  r     elong  mag " sig PA
---- --------  ------------   ------------  ------ ------ -----  --- --------
2022 11 25 02  05 17 52.121   +42 27 54.24  .12146 1.0968 152.9 20.4 .321 117
2022 11 25 03  05 17 55.556   +42 18 06.84  .12130 1.0968 153.1 20.4 .333 117
2022 11 25 04  05 17 58.976   +42 08 17.81  .12115 1.0968 153.2 20.4 .345 117
2022 11 25 05  05 18 02.380   +41 58 27.14  .12099 1.0967 153.4 20.4 .357 117
2022 11 25 06  05 18 05.769   +41 48 34.85  .12083 1.0967 153.5 20.4 .370 117
2022 11 25 07  05 18 09.142   +41 38 40.95  .12068 1.0967 153.6 20.4 .383 117
2022 11 25 08  05 18 12.501   +41 28 45.42  .12052 1.0966 153.8 20.4 .395 117
2022 11 25 09  05 18 15.844   +41 18 48.29  .12037 1.0966 153.9 20.4 .408 117
2022 11 25 10  05 18 19.172   +41 08 49.56  .12022 1.0966 154.1 20.4 .421 117
2022 11 25 11  05 18 22.485   +40 58 49.22  .12006 1.0965 154.2 20.4 .435 117
2022 11 25 12  05 18 25.783   +40 48 47.30  .11991 1.0965 154.4 20.4 .448 117
2022 11 25 13  05 18 29.066   +40 38 43.78  .11977 1.0965 154.5 20.4 .461 117
2022 11 25 14  05 18 32.335   +40 28 38.69  .11962 1.0965 154.6 20.4 .475 117
2022 11 25 15  05 18 35.588   +40 18 32.02  .11947 1.0964 154.8 20.4 .489 117
2022 11 25 16  05 18 38.827   +40 08 23.79  .11932 1.0964 154.9 20.4 .502 117
2022 11 25 17  05 18 42.052   +39 58 13.99  .11918 1.0964 155.1 20.3 .516 117
2022 11 25 18  05 18 45.262   +39 48 02.64  .11904 1.0963 155.2 20.3 .531 117
2022 11 25 19  05 18 48.457   +39 37 49.74  .11889 1.0963 155.4 20.3 .545 117
2022 11 25 20  05 18 51.638   +39 27 35.30  .11875 1.0963 155.5 20.3 .559 117
2022 11 25 21  05 18 54.804   +39 17 19.33  .11861 1.0963 155.6 20.3 .574 117
2022 11 25 22  05 18 57.956   +39 07 01.83  .11847 1.0962 155.8 20.3 .588 117
2022 11 25 23  05 19 01.094   +38 56 42.81  .11834 1.0962 155.9 20.3 .603 117
2022 11 26 00  05 19 04.218   +38 46 22.28  .11820 1.0962 156.1 20.3 .618 118
2022 11 26 01  05 19 07.328   +38 36 00.24  .11807 1.0962 156.2 20.3 .633 118
2022 11 26 02  05 19 10.424   +38 25 36.71  .11793 1.0961 156.4 20.3 .649 118
2022 11 26 03  05 19 13.505   +38 15 11.69  .11780 1.0961 156.5 20.3 .664 118
2022 11 26 04  05 19 16.573   +38 04 45.20  .11767 1.0961 156.6 20.3 .680 118
2022 11 26 05  05 19 19.627   +37 54 17.23  .11754 1.0961 156.8 20.3 .695 118
2022 11 26 06  05 19 22.667   +37 43 47.80  .11741 1.0960 156.9 20.3 .711 118
2022 11 26 07  05 19 25.693   +37 33 16.91  .11728 1.0960 157.1 20.3 .727 118
2022 11 26 08  05 19 28.706   +37 22 44.58  .11715 1.0960 157.2 20.3 .743 118
2022 11 26 09  05 19 31.705   +37 12 10.81  .11703 1.0959 157.3 20.2 .759 118
2022 11 26 10  05 19 34.690   +37 01 35.62  .11690 1.0959 157.5 20.2 .776 119
2022 11 26 11  05 19 37.662   +36 50 59.01  .11678 1.0959 157.6 20.2 .792 119
2022 11 26 12  05 19 40.621   +36 40 20.99  .11666 1.0959 157.8 20.2 .809 119
2022 11 26 13  05 19 43.566   +36 29 41.57  .11653 1.0958 157.9 20.2 .826 119
2022 11 26 14  05 19 46.498   +36 19 00.77  .11641 1.0958 158.0 20.2 .843 119
2022 11 26 15  05 19 49.417   +36 08 18.58  .11630 1.0958 158.2 20.2 .860 119
2022 11 26 16  05 19 52.322   +35 57 35.03  .11618 1.0958 158.3 20.2 .878 119
2022 11 26 17  05 19 55.215   +35 46 50.12  .11606 1.0958 158.5 20.2 .895 119
2022 11 26 18  05 19 58.094   +35 36 03.86  .11595 1.0957 158.6 20.2 .913 120
2022 11 26 19  05 20 00.960   +35 25 16.26  .11583 1.0957 158.7 20.2 .930 120
2022 11 26 20  05 20 03.814   +35 14 27.34  .11572 1.0957 158.9 20.2 .948 120
2022 11 26 21  05 20 06.654   +35 03 37.10  .11561 1.0957 159.0 20.2 .967 120
2022 11 26 22  05 20 09.482   +34 52 45.55  .11550 1.0956 159.2 20.2 .985 120
2022 11 26 23  05 20 12.296   +34 41 52.71  .11539 1.0956 159.3 20.2 1.00 120
2022 11 27 00  05 20 15.099   +34 30 58.59  .11528 1.0956 159.4 20.2 1.02 120
2022 11 27 01  05 20 17.888   +34 20 03.20  .11518 1.0956 159.6 20.1 1.04 121